Williston, ND

7:26 AM CST on December 15, 2019 (GMT -0600)
Sloulin International

Weather History for KISN - August, 2019

Change the Weather History Date:

Friday, August 2, 2019

  Actual Average Record
Temperature  
Mean Temperature 77 °F 72 °F  
Max Temperature 93 °F 86 °F 101 °F (1983)
Min Temperature 60 °F 57 °F 34 °F (1907)
Degree Days  
Heating Degree Days 0 1  
Month to date heating degree days 0 2  
Since 1 June heating degree days 85 146  
Since 1 July heating degree days 15 26  
Cooling Degree Days 12 7  
Month to date cooling degree days 20 14  
Year to date cooling degree days 264 277  
Since 1 June cooling degree days 258 264  
Growing Degree Days 26 (Base 50)    
Moisture  
Dew Point 63 °F    
Average Humidity 65    
Maximum Humidity 97    
Minimum Humidity 33    
Precipitation  
Precipitation T in 0.05 in 0.71 in (2017)
Month to date precipitation 0.22 0.11  
Year to date precipitation 9.88 9.78  
Sea Level Pressure  
Sea Level Pressure 30.01 in    
Wind  
Wind Speed 8 mph (SE)    
Max Wind Speed 17 mph    
Max Gust Speed 23 mph    
Visibility 10 miles    
Events      
T = Trace of Precipitation, MM = Missing Value Source: NWS Daily Summary

Daily Weather History Graph

Daily Weather History Graph

Search for Another Location

Airport or City:

Astronomy

Aug. 02, 2019 Rise Set
Actual Time 6:31 AM CDT 9:29 PM CDT
Civil Twilight 5:54 AM CDT 10:05 PM CDT
Nautical Twilight 5:07 AM CDT 10:52 PM CDT
Astronomical Twilight 4:10 AM CDT 11:49 PM CDT
Moon 8:17 AM CDT (8/2) 10:51 PM CDT (8/2)
Length of Visible Light 16h 11m
Length of Day
14h 58m
Waxing Crescent, 4% of the Moon is Illuminated
Aug 2
Waxing Crescent
Aug 7
First Quarter
Aug 15
Full
Aug 23
Last Quarter
Aug 30
New

Hourly Weather History & Observations

Time (CDT) Temp. Heat Index Dew Point Humidity Pressure Visibility Wind Dir Wind Speed Gust Speed Precip Events Conditions
12:52 AM 66.9 °F - 62.1 °F 84% 30.03 in 10.0 mi Calm Calm - N/A   Mostly Cloudy
1:52 AM 64.9 °F - 61.0 °F 87% 30.03 in 10.0 mi NNE 3.5 mph - N/A   Clear
2:52 AM 62.1 °F - 59.0 °F 90% 30.03 in 10.0 mi North 3.5 mph - N/A   Clear
3:52 AM 62.1 °F - 60.1 °F 93% 30.03 in 10.0 mi NNW 3.5 mph - N/A   Scattered Clouds
4:52 AM 61.0 °F - 59.0 °F 93% 30.02 in 10.0 mi Calm Calm - N/A   Clear
5:52 AM 61.0 °F - 59.0 °F 93% 30.02 in 10.0 mi Calm Calm - 0.00 in   Clear
6:52 AM 66.0 °F - 62.1 °F 87% 30.02 in 10.0 mi SE 6.9 mph - N/A   Clear
7:52 AM 69.1 °F - 63.0 °F 81% 30.02 in 10.0 mi SSE 4.6 mph - N/A   Clear
8:52 AM 72.0 °F - 63.0 °F 73% 30.02 in 10.0 mi SSE 9.2 mph - N/A   Clear
9:52 AM 75.0 °F - 64.9 °F 71% 30.03 in 10.0 mi South 6.9 mph - N/A   Clear
10:52 AM 79.0 °F - 66.0 °F 64% 30.03 in 10.0 mi SE 8.1 mph - N/A   Clear
11:52 AM 82.0 °F 84.1 °F 66.0 °F 58% 30.04 in 10.0 mi SSE 10.4 mph - N/A   Clear
12:52 PM 84.9 °F 86.6 °F 64.9 °F 51% 30.04 in 10.0 mi SSE 10.4 mph - N/A   Clear
1:52 PM 89.1 °F 90.0 °F 63.0 °F 42% 30.03 in 10.0 mi SSE 12.7 mph 19.6 mph N/A   Clear
2:52 PM 91.9 °F 91.8 °F 61.0 °F 35% 30.02 in 10.0 mi SE 11.5 mph - N/A   Clear
3:52 PM 93.0 °F 92.7 °F 60.1 °F 33% 30.01 in 10.0 mi SE 10.4 mph - N/A   Clear
4:52 PM 93.0 °F 93.8 °F 62.1 °F 36% 29.99 in 10.0 mi SE 13.8 mph - N/A   Clear
5:52 PM 91.0 °F 91.9 °F 63.0 °F 39% 29.98 in 10.0 mi SE 12.7 mph 23.0 mph N/A   Clear
6:52 PM 91.0 °F 91.9 °F 63.0 °F 39% 29.97 in 10.0 mi SE 11.5 mph - N/A   Clear
7:52 PM 89.1 °F 90.0 °F 63.0 °F 42% 29.96 in 10.0 mi ESE 12.7 mph - N/A   Clear
8:52 PM 84.9 °F 85.4 °F 62.1 °F 46% 29.97 in 10.0 mi ESE 11.5 mph - N/A   Clear
9:52 PM 80.1 °F 81.9 °F 64.9 °F 60% 29.97 in 10.0 mi ESE 6.9 mph - N/A   Clear
10:52 PM 78.1 °F - 64.9 °F 64% 29.99 in 10.0 mi ESE 5.8 mph - N/A   Clear
11:52 PM 78.1 °F - 64.9 °F 64% 29.99 in 10.0 mi SSE 9.2 mph - N/A   Clear